sat.trackr.live / text

‹ back to catalog

STARLINK-3579

NORAD 51893 · 2022-022AT

PAYLOAD ACTIVE UNKNOWN

§ Identity

Operator
Country
US
Launch date
2022-03-03
Launch site
AFETR
Launch vehicle
Mass (kg)
RCS (m²)

Purposes: comms

External: N2YO · Heavens-Above · Gunter

§ Orbital elements

Epoch: 2026-05-25T01:05:13.845696Z

Period
95.44 min
Inclination
53.2178°
Eccentricity
0.0001303
Mean motion
15.08860311 rev/d
Perigee alt
538.8 km
Apogee alt
540.6 km
Semi-major
6,917.8 km
B*
1.3722e-4
RAAN
16.3472°
Arg perigee
88.0485°
Mean anomaly
272.0657°
Rev number
23,483

§ Raw data

STARLINK-35791 51893U 22022AT  26145.04529914  .00001898  00000+0  13722-3 0  99992 51893  53.2178  16.3472 0001303  88.0485 272.0657 15.08860311234839

JSON: /api/v1/satellites/51893 · /tle

For live sub-satellite position, see the globe view (requires WebGL).

§ Visibility from observer

Set your observer location to see the next 7 days of passes ≥ 10°. The values pass through the URL so the page stays shareable.

No JS? Fill the form by hand. The geolocation button needs JavaScript.